This is the latest recevied weather packets stored in our database for station/object N3WAX-1. If no packets are shown the sender has not sent any weather packets the latest 10 day(s).
| Time | Temp. | Humidity | Pressure | Rain* | Wind** | Luminosity | Snow |
|---|---|---|---|---|---|---|---|
| 1777792934 | 5° C | 79% | 1011.7 hPa | 0 mm | - | 0 W/m² | - |
| 1777790381 | 5.56° C | 77% | 1011.4 hPa | 0 mm | - | 0 W/m² | - |
| 1777789330 | 5.56° C | 76% | 1011.3 hPa | 0 mm | - | 0 W/m² | - |
| 1777788131 | 5.56° C | 75% | 1011.8 hPa | 0 mm | - | 0 W/m² | - |
| 1777787816 | 6.11° C | 75% | 1011.9 hPa | 0 mm | - | 0 W/m² | - |
| 1777786332 | 6.11° C | 74% | 1012 hPa | 0 mm | - | 0 W/m² | - |
| 1777783874 | 6.67° C | 72% | 1012.4 hPa | 0 mm | - | 0 W/m² | - |
| 1777783258 | 7.22° C | 71% | 1012.4 hPa | 0 mm | - | 0 W/m² | - |
| 1777782952 | 7.22° C | 70% | 1012.5 hPa | 0 mm | - | 0 W/m² | - |
| 1777782336 | 7.78° C | 69% | 1012.6 hPa | 0 mm | - | 0 W/m² | - |
| 1777782030 | 7.78° C | 69% | 1012.7 hPa | 0 mm | - | 0 W/m² | - |
| 1777780324 | 8.33° C | 66% | 1012.7 hPa | 0 mm | - | 0 W/m² | - |
| 1777776504 | 9.44° C | 64% | 1012.9 hPa | 0 mm | - | 0 W/m² | - |
| 1777776034 | 9.44° C | 63% | 1013 hPa | 0 mm | - | 0 W/m² | - |
| 1777772898 | 8.89° C | 65% | 1012.9 hPa | 0 mm | - | 0 W/m² | - |
| 1777771081 | 8.33° C | 64% | 1012.7 hPa | 0 mm | - | 0 W/m² | - |
| 1777765655 | 10° C | 58% | 1012 hPa | 0 mm | - | 12 W/m² | - |
| 1777765356 | 10.56° C | 57% | 1011.9 hPa | 0 mm | - | 16 W/m² | - |
| 1777765055 | 10.56° C | 56% | 1011.9 hPa | 0 mm | - | 21 W/m² | - |
| 1777764155 | 11.11° C | 53% | 1011.7 hPa | 0 mm | - | 42 W/m² | - |
| 1777761753 | 12.22° C | 51% | 1011.7 hPa | 0 mm | - | 81 W/m² | - |
| 1777761452 | 12.78° C | 49% | 1011.7 hPa | 0 mm | - | 62 W/m² | - |
| 1777758891 | 12.78° C | 48% | 1011.6 hPa | 0 mm | - | 139 W/m² | - |
| 1777756927 | 13.33° C | 51% | 1011.4 hPa | 0 mm | - | 283 W/m² | - |
| 1777756463 | 12.78° C | 47% | 1011.4 hPa | 0 mm | - | 239 W/m² | - |
* Rain latest hour (hover to see other rain measurements)
** Current wind speed in m/s (hover to see current wind gust speed)